Printer-friendly version

IAU Minor Planet Center

Minor Planet Center

MPEC 2004-O01 : 2004 NU7

The following Minor Planet Electronic Circular may be linked-to from your own Web pages, but must not otherwise be redistributed electronically.


Read MPEC 2004-N48 Read MPEC 2004-O02


M.P.E.C. 2004-O01                                Issued 2004 July 16, 02:36 UT

     The Minor Planet Electronic Circulars contain information on unusual
         minor planets and routine data on comets.  They are published
   on behalf of Commission 20 of the International Astronomical Union by the
          Minor Planet Center, Smithsonian Astrophysical Observatory,
                          Cambridge, MA 02138, U.S.A.

                  Supported in part by the Brinson Foundation
             Prepared using the Tamkin Foundation Computer Network

                              MPC@CFA.HARVARD.EDU
          URL http://cfa-www.harvard.edu/iau/mpc.html  ISSN 1523-6714

                                   2004 NU7

Observations:
     K04N07U* C2004 07 14.27871 21 55 30.37 -05 04 13.1          20.0   EO001704
     K04N07U  C2004 07 14.28869 21 55 34.74 -05 04 22.3          19.2   EO001704
     K04N07U  C2004 07 14.29863 21 55 39.13 -05 04 31.1          19.4   EO001704
     K04N07U  C2004 07 14.30855 21 55 43.52 -05 04 40.5          19.3   EO001704
     K04N07U  C2004 07 14.31904 21 55 48.07 -05 04 49.6          19.4   EO001704
     K04N07U  C2004 07 15.38572 22 03 42.53 -05 19 09.9          19.2   EO001704
     K04N07U  C2004 07 15.39644 22 03 46.20 -05 19 17.9          19.2   EO001704
     K04N07U  C2004 07 15.40747 22 03 50.01 -05 19 26.8          19.5   EO001704
     K04N07U  C2004 07 15.42873 22 03 57.47 -05 19 42.2          19.7   EO001704
     K04N07U  C2004 07 15.97273 22 07 35.77 -05 26 23.1          19.5 R EO001620
     K04N07U  C2004 07 15.98342 22 07 39.30 -05 26 30.9          19.9 R EO001620

Observer details:
620 Observatorio Astronomico de Mallorca.  Observers S. Sanchez, R. Stoss,
    J. Nomen.  0.30-m f/9 Schmidt-Cassegrain + CCD.
704 Lincoln Laboratory ETS, New Mexico.  Observers M. Blythe, F. Shelly,
    M. Bezpalko, R. Huber, L. Manguso, D. Torres, R. Kracke, M. McCleary,
    H. Stange, A. Milner.  Measurers J. Stuart, R. Sayer, J. Evans, J. Kommers.
    1.0-m f/2.15 reflector + CCD.

Orbital elements:
2004 NU7
Epoch 2004 July 14.0 TT = JDT 2453200.5                 MPC
M   5.65901              (2000.0)            P               Q
n   0.29492289     Peri.  135.22509     +0.01947941     +0.99975849
a   2.2352721      Node   135.88806     -0.92135444     +0.02190140
e   0.5410977      Incl.    0.83751     -0.38823517     -0.00181396
P   3.34           H   24.6           G   0.15
From 11 observations 2004 July 14-15.

Ephemeris:
2004 NU7                 a,e,i = 2.24, 0.54, 1                   q = 1.0258
Date    TT    R. A. (2000) Decl.     Delta      r     Elong.  Phase     V
2004 07 14    21 53.02   -04 58.1    0.046    1.053   142.5    36.0    19.5
2004 07 24    22 36.04   -06 33.9    0.088    1.088   143.2    34.0    20.9
2004 08 03    22 45.97   -07 37.1    0.134    1.133   150.9    25.8    21.7
2004 08 13    22 46.25   -08 34.7    0.184    1.188   160.8    16.3    22.2

                       (Last issue was M.P.E.C. 2004-N48)

Kyle E. Smalley              (C) Copyright 2004 MPC           M.P.E.C. 2004-O01

Read MPEC 2004-N48 Read MPEC 2004-O02


Our Web policy. Index to the CBAT/MPC/ICQ pages.


Valid HTML 4.01!